COSMOS 1275 DEB

Satellite information

Favourite Embed

Satellite Type and Status

DEBRISIN ORBIT

Key statistics

Satellite COSMOS 1275 DEB at a glance.

Uptime

16105

Days in orbit

Revolutions

≈ 14.0

Per day

Orbit

LEO

Low Earth Orbit

Inclination

83.0

Latest

Satellite identification and parameters

Extended collection of information and parameters for COSMOS 1275 DEB.

Object identification

Identified? True

Debris? True

Object name: COSMOS 1275 DEB

International designator: 1981-053QY

Object number (NORAD): 42136

Object ID (CCSDS): 42136

Country: COMMONWEALTH OF INDEPENDENT STATES (CIS)

Current information (Y/N): Y

RCS size: SMALL

Orbital parameters

Period: 103.083 minutes

Inclination: 83.0197 deg

SMA: 7282.568 km

Apoapsis: 954.065 km

Periapsis: 854.8 km

RAAN: 251.331 deg

Eccentricy: 0.0068153

Argument of periapsis: 172.688 deg

Mean anomaly: 187.53 deg

Mean motion: 13.96934285 rev/day

Mean motion (dot): 0.00001411 rev/day2

B* drag term: 0.00098254 1/REarth

Two-line elements (TLE)

Creation date: July 7, 2025, 10:26 p.m.

Reference frame: TEME

Reference center: EARTH

Epoch: July 7, 2025, 9:08 p.m. UTC

TLE line 0: 0 COSMOS 1275 DEB

TLE line 1: 1 42136U 81053QY 25188.88119062 .00001411 00000-0 98254-3 0 9990

TLE line 2: 2 42136 83.0197 251.3310 0068153 172.6880 187.5300 13.96934285127077

Live tracking on map

Real-time ground track for satellite COSMOS 1275 DEB.

In-orbit conjunctions

A list of the most updated potential collisions computed for object COSMOS 1275 DEB.

Target Orbit TCA Probability of collision Miss distance Type
COSMOS 1598 LEO 2024-09-07 10:03:50 0.000299173 509.0 (m) PAYLOAD

Associated space launch

Navigation satellite providing location information for the Tsiklon-B navigation system

COSMOS 1275 DEB was lifted into orbit during the mission ‘Kosmos-3M | Parus 27’, on board a Kosmos-3M space rocket.

The launch took place on June 4, 1981, 3:41 p.m. from 132/2.

For more information about the launch, click the button.

Launch to space Kosmos-3M | Parus 27
Kosmos-3M | Parus 27

Agency: N/A

Status: Launch Successful

Launch date: June 4, 1981, 3:41 p.m. UTC

Rocket: Kosmos-3M

Launch pad: 132/2

Location: Plesetsk Cosmodrome, Russian Federation

...

Latest news about this satellite

There are no fresh news available about this satellite. Check back as we update our databases every day.


Newsletter sign-up

Weekly statistics, charts and insights to help you stay on top of the space industry.